"Pseudo-MPEC" for P10Iow7

Created 2018 Jul 16 2:18:50 UT using Find_Orb

Click here for an explanation of pseudo-MPECs

 
 Astrometry: 
     P10Iow7  C2018 07 11L[AstrometrypeZJ.Q@S8_\mTe]=+y^Dhm!%j5p\+5pUCGPP_H6uF51
     P10Iow7  C2018 07 11))B@FM@*qbwMAAMVkca'3qJZ!!sI7HtQH;Ru5\Gw4Ns/UO!?7(RbF51
     P10Iow7  C2018 07 11Rgc-:fx=lsHnhD#7kT%?M4tWimHK0XAMe[9dx`7!.%!R\8Cjq,kOF51
     P10Iow7  C2018 07 11O^w!^-Y%ZD;Mbmgynredacted;vXJN:L+4h#t3RIr)J06)jJ(_wjF51
     P10Iow7 KC2018 07 12,ejU;H%i=AoU8YOKeSwn#.*aR.ik+3wJWRe1/wS$yb2lBwE?k'OcH21
     P10Iow7 KC2018 07 12Y],$B@VGQ.2W@u.MTa5Js'lp2;)9jFM'-QJMaqXp]6j3x=g`,kY4H21
     P10Iow7 KC2018 07 12^*npEwcjD6KQBOX)F6S^wK%:l?!]xiA(]kN[/rYyCdAsv%sf21m0H21
     P10Iow7 KC2018 07 12\L$NkYfCHaL,STgbaId]v:p([MlyKFD*seefBSNn_[w\Z8+xu\8k734
     P10Iow7 KC2018 07 12RN3l@+Ek,DPrf)4B[6HXr(qWZF9rlE6@3\:\,$\Ql?Qa3pcEBEy%734
     P10Iow7 KC2018 07 14=mw/8gOKJCD,)f?SX^+8Er..=PSZ)2Qv/`iwi:!28a;M[n+tSCsKL01
     P10Iow7 KC2018 07 14+(i[5#dHT;1n*.]xcI7J?,w!\O.YHYd*y@YB3Y-[=p;YB,^NEOCPL01

Station data:
(734) Farpoint Observatory, Eskridge  (N38.890107 W96.001400)  US/Kansas.
   Observer G. Hug. .3 meter s-c + CCD.
(F51) Pan-STARRS 1, Haleakala  (N20.707235 W156.255910)  US/Hawaii.
   Observers N. Primak, A. Schultz, S. Watters, J. Thiel, T. Goggia. Measurer
   PS1 Science Consortium. 1.8-m Ritchey-Chrétien + CCD.
(H21) Astronomical Research Observatory, Westfield  (N39.483057 W87.968270)
   US/Illinois. 0.76-m f/3.0 astrograph + CCD.
(L01) Višnjan Observatory, Tičan  (N45.290900 E13.749300)  Croatia.  Observer
   K. Korlević. 1.0-m f/2.9 reflector + CCD.

Orbital elements:  P10Iow7
   Perihelion 2018 Aug 4.051755 +/- 1.17 TT =  1:14:31 (JD 2458334.551755)
Epoch 2018 Jul 14.0 TT = JDT 2458313.5   Earth MOID: 0.2607   AutoNEOCP
M 350.81817 +/- 1.2                 (J2000 ecliptic)
n   0.43615467 +/- 0.0355           Peri.  193.84565 +/- 0.9
a   1.72203652 +/- 0.0935           Node   131.22898 +/- 0.6
e   0.2626647 +/- 0.0314            Incl.   18.19490 +/- 0.7
P   2.26/825.38d           H 20.6   G  0.15   U 10.5  
q 1.26971827 +/- 0.0139    Q 2.17435477 +/- 0.161
From 11 observations 2018 July 11-14; mean residual 0".25
Residuals in arcseconds: 
180711 F51  .02-  .08+    180712 H21  .22+  .32-    180712 734  .52-  .49+    
180711 F51  .06-  .10+    180712 H21  .15+  .51-    180714 L01  .08+  .35-    
180711 F51  .10+  .06+    180712 H21  .06+  .16-    180714 L01  .03-  .42+    
180711 F51  .07+  .04+    180712 734  .05+  .08+    

Ephemerides (geocentric):
Date (UTC) HH   RA              Dec         delta   r     elong  mag " sig PA
---- -- -- --  -------------   -----------  ------ ------ -----  --- ---- ---
2018 07 16 02  23 40 06.214   -01 22 39.55  .43033 1.2783 118.4 21.0  2.4  23
2018 07 16 03  23 40 13.993   -01 23 43.90  .43015 1.2783 118.4 21.0  2.5  23
2018 07 16 04  23 40 21.771   -01 24 48.34  .42997 1.2783 118.4 21.0  2.6  22
2018 07 16 05  23 40 29.550   -01 25 52.88  .42980 1.2782 118.4 21.0  2.7  22
2018 07 16 06  23 40 37.329   -01 26 57.51  .42962 1.2782 118.4 21.0  2.8  21
2018 07 16 07  23 40 45.108   -01 28 02.23  .42945 1.2781 118.5 21.0  2.9  21
2018 07 16 08  23 40 52.887   -01 29 07.04  .42927 1.2781 118.5 21.0  3.0  20
2018 07 16 09  23 41 00.666   -01 30 11.95  .42910 1.2781 118.5 21.0  3.1  20
2018 07 16 10  23 41 08.445   -01 31 16.95  .42892 1.2780 118.5 21.0  3.2  19
2018 07 16 11  23 41 16.224   -01 32 22.05  .42875 1.2780 118.5 21.0  3.2  19
2018 07 16 12  23 41 24.004   -01 33 27.24  .42857 1.2780 118.6 21.0  3.3  19
2018 07 16 13  23 41 31.783   -01 34 32.52  .42840 1.2779 118.6 21.0  3.4  18
2018 07 16 14  23 41 39.563   -01 35 37.90  .42822 1.2779 118.6 21.0  3.5  18
2018 07 16 15  23 41 47.342   -01 36 43.36  .42805 1.2778 118.6 21.0  3.6  18
2018 07 16 16  23 41 55.122   -01 37 48.93  .42787 1.2778 118.6 21.0  3.7  17
2018 07 16 17  23 42 02.901   -01 38 54.58  .42770 1.2778 118.6 21.0  3.8  17
2018 07 16 18  23 42 10.681   -01 40 00.33  .42753 1.2777 118.7 21.0  3.9  17
2018 07 16 19  23 42 18.461   -01 41 06.17  .42735 1.2777 118.7 21.0  4.1  16
2018 07 16 20  23 42 26.240   -01 42 12.11  .42718 1.2777 118.7 21.0  4.2  16
2018 07 16 21  23 42 34.020   -01 43 18.14  .42701 1.2776 118.7 21.0  4.3  16
2018 07 16 22  23 42 41.800   -01 44 24.26  .42683 1.2776 118.7 21.0  4.4  16
2018 07 16 23  23 42 49.580   -01 45 30.47  .42666 1.2776 118.7 21.0  4.5  15
2018 07 17 00  23 42 57.359   -01 46 36.78  .42649 1.2775 118.8 21.0  4.6  15
2018 07 17 01  23 43 05.139   -01 47 43.19  .42632 1.2775 118.8 21.0  4.7  15
2018 07 17 02  23 43 12.919   -01 48 49.68  .42615 1.2774 118.8 21.0  4.8  15
2018 07 17 03  23 43 20.699   -01 49 56.27  .42597 1.2774 118.8 21.0  4.9  14
2018 07 17 04  23 43 28.479   -01 51 02.95  .42580 1.2774 118.8 21.0  5.1  14
2018 07 17 05  23 43 36.259   -01 52 09.73  .42563 1.2773 118.8 21.0  5.2  14
2018 07 17 06  23 43 44.039   -01 53 16.59  .42546 1.2773 118.9 21.0  5.3  14
2018 07 17 07  23 43 51.819   -01 54 23.55  .42529 1.2773 118.9 21.0  5.4  13
2018 07 17 08  23 43 59.599   -01 55 30.61  .42512 1.2772 118.9 21.0  5.6  13
2018 07 17 09  23 44 07.379   -01 56 37.76  .42495 1.2772 118.9 21.0  5.7  13
2018 07 17 10  23 44 15.159   -01 57 45.00  .42478 1.2772 118.9 21.0  5.8  13
2018 07 17 11  23 44 22.938   -01 58 52.33  .42461 1.2771 118.9 21.0  5.9  13
2018 07 17 12  23 44 30.718   -01 59 59.76  .42444 1.2771 119.0 21.0  6.1  13
2018 07 17 13  23 44 38.498   -02 01 07.28  .42427 1.2771 119.0 21.0  6.2  12
2018 07 17 14  23 44 46.278   -02 02 14.89  .42410 1.2770 119.0 21.0  6.3  12
2018 07 17 15  23 44 54.058   -02 03 22.60  .42393 1.2770 119.0 21.0  6.5  12
2018 07 17 16  23 45 01.837   -02 04 30.40  .42376 1.2770 119.0 21.0  6.6  12
2018 07 17 17  23 45 09.617   -02 05 38.29  .42359 1.2769 119.1 21.0  6.7  12
2018 07 17 18  23 45 17.397   -02 06 46.28  .42342 1.2769 119.1 21.0  6.9  11
2018 07 17 19  23 45 25.176   -02 07 54.35  .42325 1.2769 119.1 21.0  7.0  11
2018 07 17 20  23 45 32.956   -02 09 02.53  .42309 1.2768 119.1 21.0  7.1  11
2018 07 17 21  23 45 40.735   -02 10 10.79  .42292 1.2768 119.1 21.0  7.3  11
2018 07 17 22  23 45 48.515   -02 11 19.15  .42275 1.2768 119.1 21.0  7.4  11
2018 07 17 23  23 45 56.294   -02 12 27.60  .42258 1.2767 119.2 21.0  7.6  11
2018 07 18 00  23 46 04.074   -02 13 36.14  .42241 1.2767 119.2 21.0  7.7  11
2018 07 18 01  23 46 11.853   -02 14 44.78  .42225 1.2767 119.2 21.0  7.9  10